Main page
Satellite images Climate Cyclones Lightning AirportsFAQ Languages Contact Newsletter About
Weather : Europe Africa North America South America Asia Australia-Oceania Others

, Lampang, Lampang Airport

48328

latitude: , longitude: Thailand, elevation: 18-17N m


METAR: VTCL 200100Z 27003KT 7000 FEW015 SCT020 BKN100 26/24 Q1011